Newberry, MI

1:16 PM EDT on September 26, 2017 (GMT -0400)
Luce County

Weather History for KERY - December, 2013

Change the Weather History Date:

Thursday, December 5, 2013

  Actual Average Record
Temperature  
Mean Temperature 26 °F -  
Max Temperature 41 °F 32 °F 57 °F (2001)
Min Temperature 11 °F 20 °F -3 °F (1926)
Degree Days  
Heating Degree Days 39    
Moisture  
Dew Point 20 °F    
Average Humidity 76    
Maximum Humidity 100    
Minimum Humidity 60    
Precipitation  
Precipitation 0.03 in - - ()
Sea Level Pressure  
Sea Level Pressure 29.63 in    
Wind  
Wind Speed 16 mph (SW)    
Max Wind Speed 25 mph    
Max Gust Speed 37 mph    
Visibility 9 miles    
Events Rain    
Averages and records for this station are not official NWS values.
T = Trace of Precipitation, MM = Missing Value Source: NWS Daily Summary

Daily Weather History Graph

Daily Weather History Graph

Search for Another Location

Airport or City:

Trip Planner

Search our weather history database for the weather conditions in past years. The results will help you decide how hot, cold, wet, or windy it might be!

Date:

Astronomy

Dec. 05, 2013 Rise Set
Actual Time 8:09 AM EST 4:55 PM EST
Civil Twilight 7:34 AM EST 5:30 PM EST
Nautical Twilight 6:56 AM EST 6:08 PM EST
Astronomical Twilight 6:20 AM EST 6:44 PM EST
Moon 10:24 AM EST (12/5) 8:21 PM EST (12/5)
Length of Visible Light 9h 55m
Length of Day
8h 46m
Waxing Crescent, 10% of the Moon is Illuminated
Dec 5
Waxing Crescent
Dec 9
First Quarter
Dec 17
Full
Dec 25
Last Quarter
Jan 1
New

Hourly Weather History & Observations

Time (EST) Temp. Windchill Dew Point Humidity Pressure Visibility Wind Dir Wind Speed Gust Speed Precip Events Conditions
12:15 AM 36.9 °F 29.6 °F 36.5 °F 99% 29.34 in 2.0 mi SE 10.4 mph - 0.01 in   Overcast
12:35 AM 38.3 °F 31.9 °F 38.3 °F 100% 29.34 in 3.0 mi South 9.2 mph - 0.03 in Rain Light Rain
12:55 AM 38.8 °F 31.6 °F 38.5 °F 99% 29.33 in 3.0 mi SSE 11.5 mph - 0.03 in Rain Light Rain
1:15 AM 39.6 °F 33.0 °F 39.6 °F 100% 29.32 in 0.8 mi South 10.4 mph 16.1 mph N/A Rain Light Rain
1:35 AM 41.2 °F 34.1 °F 41.2 °F 100% 29.32 in 0.2 mi South 12.7 mph - N/A Rain Light Rain
1:55 AM 41.4 °F 33.6 °F 41.4 °F 100% 29.32 in 0.2 mi SSW 15.0 mph 20.7 mph N/A Rain Light Rain
2:15 AM 41.9 °F 34.0 °F 41.9 °F 100% 29.32 in 1.0 mi SSW 16.1 mph 20.7 mph N/A   Unknown
2:34 AM 41.7 °F 33.1 °F 41.4 °F 99% 29.32 in 3.0 mi SSW 18.4 mph 25.3 mph N/A   Overcast
2:55 AM 41.4 °F 33.0 °F 40.5 °F 97% 29.33 in 5.0 mi SW 17.3 mph 24.2 mph N/A   Overcast
3:15 AM 40.5 °F 31.2 °F 39.4 °F 96% 29.34 in 7.0 mi SW 19.6 mph 28.8 mph N/A   Overcast
3:35 AM 39.2 °F 30.5 °F 37.4 °F 93% 29.34 in 10.0 mi SW 16.1 mph 23.0 mph N/A   Overcast
3:55 AM 38.5 °F 27.8 °F 36.3 °F 92% 29.35 in 10.0 mi WSW 23.0 mph 31.1 mph N/A   Overcast
4:15 AM 37.4 °F 27.8 °F 35.8 °F 94% 29.36 in 10.0 mi SW 17.3 mph 27.6 mph N/A   Overcast
4:35 AM 36.7 °F 26.6 °F 34.3 °F 91% 29.37 in 10.0 mi SW 18.4 mph 29.9 mph N/A   Overcast
4:55 AM 36.5 °F 25.7 °F 33.6 °F 89% 29.39 in 10.0 mi SW 20.7 mph 31.1 mph N/A   Overcast
5:15 AM 36.0 °F 26.3 °F 33.1 °F 89% 29.41 in 10.0 mi SW 16.1 mph 27.6 mph N/A   Overcast
5:35 AM 35.1 °F 23.5 °F 32.0 °F 89% 29.39 in 10.0 mi SW 21.9 mph 33.4 mph N/A   Overcast
5:56 AM 34.3 °F 23.9 °F 31.8 °F 90% 29.41 in 10.0 mi SW 17.3 mph 24.2 mph N/A   Overcast
6:15 AM 34.2 °F 24.4 °F 31.3 °F 89% 29.44 in 10.0 mi SW 15.0 mph 29.9 mph N/A   Overcast
6:35 AM 33.8 °F 22.2 °F 30.6 °F 88% 29.44 in 10.0 mi SW 20.7 mph 26.5 mph N/A   Overcast
6:56 AM 33.4 °F 22.0 °F 30.0 °F 87% 29.44 in 10.0 mi SW 19.6 mph 29.9 mph N/A   Overcast
7:15 AM 33.1 °F 22.6 °F 30.0 °F 89% 29.46 in 10.0 mi SW 16.1 mph 23.0 mph N/A   Overcast
7:35 AM 32.7 °F 21.8 °F 28.9 °F 86% 29.46 in 10.0 mi SW 17.3 mph 27.6 mph N/A   Overcast
7:55 AM 32.2 °F 20.7 °F 28.2 °F 85% 29.46 in 10.0 mi SW 18.4 mph 25.3 mph N/A   Overcast
8:15 AM 32.0 °F 20.1 °F 27.3 °F 83% 29.48 in 10.0 mi SW 19.6 mph 26.5 mph N/A   Overcast
8:36 AM 32.0 °F 20.8 °F 27.1 °F 82% 29.50 in 10.0 mi SW 17.3 mph 24.2 mph N/A   Overcast
8:55 AM 31.6 °F 19.7 °F 25.9 °F 79% 29.49 in 10.0 mi SW 19.6 mph 26.5 mph N/A   Overcast
9:15 AM 31.6 °F 20.4 °F 26.1 °F 80% 29.51 in 10.0 mi SW 17.3 mph 28.8 mph N/A   Overcast
9:35 AM 30.9 °F 18.7 °F 25.3 °F 80% 29.52 in 10.0 mi SW 19.6 mph 27.6 mph N/A   Overcast
9:55 AM 30.0 °F 17.9 °F 23.7 °F 77% 29.54 in 10.0 mi SW 18.4 mph 35.7 mph N/A   Overcast
10:16 AM 29.7 °F 17.4 °F 22.8 °F 76% 29.54 in 10.0 mi SW 18.4 mph 36.8 mph N/A   Overcast
10:35 AM 30.0 °F 18.7 °F 22.1 °F 72% 29.55 in 10.0 mi SW 16.1 mph 28.8 mph N/A   Overcast
10:55 AM 30.2 °F 17.8 °F 20.7 °F 68% 29.56 in 10.0 mi WSW 19.6 mph 34.5 mph N/A   Overcast
11:15 AM 28.9 °F 16.1 °F 19.2 °F 67% 29.58 in 10.0 mi WSW 19.6 mph 34.5 mph N/A   Overcast
11:35 AM 28.8 °F 16.2 °F 19.0 °F 67% 29.59 in 10.0 mi WSW 18.4 mph 28.8 mph N/A   Overcast
11:55 AM 28.4 °F 13.8 °F 16.5 °F 61% 29.60 in 10.0 mi WSW 25.3 mph 32.2 mph N/A   Mostly Cloudy
12:15 PM 27.5 °F 13.2 °F 15.8 °F 61% 29.62 in 10.0 mi WSW 23.0 mph 32.2 mph N/A   Mostly Cloudy
12:35 PM 26.6 °F 13.1 °F 15.1 °F 62% 29.63 in 10.0 mi WSW 19.6 mph 31.1 mph N/A   Scattered Clouds
12:55 PM 26.1 °F 10.7 °F 14.0 °F 60% 29.64 in 10.0 mi WSW 25.3 mph 33.4 mph N/A   Scattered Clouds
1:15 PM 26.1 °F 13.1 °F 13.8 °F 60% 29.65 in 10.0 mi WSW 17.3 mph 31.1 mph N/A   Clear
1:35 PM 25.9 °F 13.8 °F 14.2 °F 61% 29.66 in 10.0 mi SW 15.0 mph 28.8 mph N/A   Clear
1:55 PM 25.5 °F 12.4 °F 13.8 °F 61% 29.67 in 10.0 mi WSW 17.3 mph 24.2 mph N/A   Clear
2:15 PM 25.2 °F 12.0 °F 13.8 °F 62% 29.68 in 10.0 mi WSW 17.3 mph - N/A   Clear
2:35 PM 24.6 °F 9.7 °F 13.1 °F 62% 29.68 in 10.0 mi WSW 21.9 mph - N/A   Clear
2:55 PM 24.4 °F 11.0 °F 12.9 °F 62% 29.70 in 10.0 mi WSW 17.3 mph 24.2 mph N/A   Clear
3:16 PM 24.3 °F 9.6 °F 12.2 °F 60% 29.72 in 10.0 mi SW 20.7 mph 26.5 mph N/A   Clear
3:35 PM 23.5 °F 9.4 °F 11.5 °F 60% 29.73 in 10.0 mi WSW 18.4 mph 27.6 mph N/A   Clear
3:55 PM 23.4 °F 8.1 °F 11.5 °F 60% 29.74 in 10.0 mi WSW 21.9 mph 27.6 mph N/A   Clear
4:16 PM 23.0 °F 8.7 °F 11.1 °F 60% 29.76 in 10.0 mi WSW 18.4 mph 25.3 mph N/A   Clear
4:35 PM 21.9 °F 9.2 °F 10.2 °F 61% 29.79 in 10.0 mi West 13.8 mph 24.2 mph N/A   Clear
4:55 PM 21.2 °F 7.8 °F 9.5 °F 61% 29.80 in 10.0 mi WSW 15.0 mph 21.9 mph N/A   Scattered Clouds
5:16 PM 20.5 °F 5.5 °F 9.5 °F 63% 29.81 in 10.0 mi West 18.4 mph 23.0 mph N/A   Clear
5:35 PM 20.1 °F 6.4 °F 9.1 °F 62% 29.81 in 10.0 mi West 15.0 mph 21.9 mph N/A   Clear
5:55 PM 19.2 °F 3.8 °F 8.4 °F 63% 29.82 in 10.0 mi WSW 18.4 mph 26.5 mph N/A   Clear
6:15 PM 18.3 °F 3.6 °F 7.5 °F 63% 29.83 in 10.0 mi WSW 16.1 mph 23.0 mph N/A   Clear
6:35 PM 18.0 °F 2.6 °F 6.8 °F 62% 29.84 in 10.0 mi WSW 17.3 mph 25.3 mph N/A   Clear
6:55 PM 17.1 °F 4.3 °F 6.8 °F 64% 29.85 in 10.0 mi WSW 11.5 mph - N/A   Clear
7:15 PM 16.5 °F 1.8 °F 6.4 °F 65% 29.87 in 10.0 mi WSW 15.0 mph 19.6 mph N/A   Clear
7:35 PM 16.2 °F -0.2 °F 5.9 °F 64% 29.87 in 10.0 mi WSW 18.4 mph 21.9 mph N/A   Clear
7:55 PM 15.8 °F -0.6 °F 5.5 °F 64% 29.89 in 10.0 mi WSW 18.4 mph 21.9 mph N/A   Clear
8:15 PM 15.1 °F -1.6 °F 5.0 °F 64% 29.91 in 10.0 mi WSW 18.4 mph 25.3 mph N/A   Clear
8:36 PM 14.9 °F -1.8 °F 5.0 °F 65% 29.92 in 10.0 mi WSW 18.4 mph 21.9 mph N/A   Clear
8:55 PM 14.5 °F -0.7 °F 5.0 °F 66% 29.94 in 10.0 mi WSW 15.0 mph 23.0 mph N/A   Clear
9:15 PM 14.0 °F -3.4 °F 5.0 °F 67% 29.95 in 10.0 mi WSW 19.6 mph 26.5 mph N/A   Clear
9:36 PM 13.3 °F -2.9 °F 4.5 °F 68% 29.96 in 10.0 mi WSW 16.1 mph 26.5 mph N/A   Clear
9:55 PM 13.1 °F -3.7 °F 4.8 °F 70% 29.96 in 10.0 mi WSW 17.3 mph 26.5 mph N/A   Clear
10:15 PM 12.7 °F -5.1 °F 4.6 °F 70% 29.96 in 10.0 mi WSW 19.6 mph 25.3 mph N/A   Clear
10:36 PM 12.2 °F -3.7 °F 4.1 °F 70% 29.98 in 10.0 mi WSW 15.0 mph 21.9 mph N/A   Clear
10:55 PM 11.8 °F -3.6 °F 4.1 °F 71% 29.98 in 10.0 mi WSW 13.8 mph 21.9 mph N/A   Clear
11:15 PM 11.5 °F -6.3 °F 3.7 °F 71% 29.98 in 10.0 mi WSW 18.4 mph 26.5 mph N/A   Clear
11:35 PM 11.3 °F -6.0 °F 3.2 °F 70% 29.99 in 10.0 mi WSW 17.3 mph 25.3 mph N/A   Clear
11:55 PM 11.1 °F -6.7 °F 3.2 °F 70% 30.00 in 10.0 mi WSW 18.4 mph 26.5 mph N/A   Clear